Regional Weather Roundup
Issued by NWS

Home | Current Version | Previous Version | Graphics & Text | Print | Product List | Glossary On
Versions: 1 2 3 4 5 6 7 8 9 10 11 12 13 14 15 16 17 18 19 20 21 22 23 24 25 26 27 28 29 30 31 32 33 34 35 36 37 38 39 40 41 42 43 44 45 46 47 48 49 50
000
ASUS45 KSLC 191610
RWRUT

UTAH REGIONAL WEATHER ROUNDUP
NATIONAL WEATHER SERVICE SALT LAKE CITY UT
900 AM MST THU JAN 19 2017

UTZ001>011-023>025-191700-

NORTHERN UTAH

CITY           SKY/WX    TMP DP  RH WIND       PRES   REMARKS
BRIGHAM CITY     N/A     23  20  87 CALM      29.83R VSB 1/2
DUGWAY           N/A     31  30  97 NW5       29.82R VSB 1/2 WCI  26
HILL AFB       SNOW      30  29  94 SW6       29.78R VSB 1/2 WCI  24
LOGAN          LGT SNOW  19  16  88 CALM      29.80R VSB 3/4
OGDEN          SNOW      24  23  96 NW3       29.79R VSB 1/2
SALT LAKE CITY SNOW      27  25  92 NW9       29.81R VSB 1/2 WCI  18
TOOELE VALLEY  LGT SNOW  28  27  93 CALM      29.82R
WENDOVER       CLOUDY    21  19  93 CALM      29.81R
HEBER CITY     CLOUDY    30  27  86 W5        29.75S WCI  25
WEST JORDAN    CLOUDY    32  32 100 S15       29.79R WCI  22

$$

UTZ011>015-024>027-191700-

CENTRAL/NORTHEAST UTAH

CITY           SKY/WX    TMP DP  RH WIND       PRES   REMARKS
PROVO AIRPORT  MIX PCPN  31  29  92 SW3       29.81F
MOAB/CANYONLAN CLOUDY    32  28  85 CALM      29.85R
DELTA          CLOUDY    32  32 100 S9        29.79S WCI  24
PRICE          LGT SNOW  25  22  88 CALM      29.83R FOG
RICHFIELD      CLOUDY    37  30  75 SW15      29.81S WCI  28
ROOSEVELT      LGT SNOW  12   9  85 CALM      29.95R
VERNAL         CLOUDY    12   7  80 NE6       29.92R WCI   3

$$

UTZ013>016-019>022-027-191700-

SOUTHERN UTAH

CITY           SKY/WX    TMP DP  RH WIND       PRES   REMARKS
BRYCE CANYON   LGT SNOW  26  24  92 SE13      29.84S FOG     WCI  15
CEDAR CITY     CLOUDY    32  30  92 S13       29.80F WCI  22
MILFORD        CLOUDY    33  31  92 S20       29.79F WCI  21
ST GEORGE      CLOUDY    41  36  81 NE6       29.92S
HANKSVILLE     CLOUDY    28  27  93 MISG      29.88S
KANAB          CLOUDY    36  34  93 CALM      29.93S FOG
BLANDING       CLOUDY    30  28  92 NE3       29.98R

$$

REGIONAL REPORTS     COLORADO/ARIZONA

CITY           SKY/WX    TMP DP  RH WIND       PRES   REMARKS
CRAIG, CO      CLOUDY     7   5  91 CALM      29.85R
GRAND JUNCTION SUNNY     30  26  85 E15       29.86S WCI  19
RIFLE, CO      CLOUDY    23  19  85 CALM      29.89S
MONTROSE, CO   CLOUDY    28  19  69 SE6       29.91S WCI  22
CORTEZ, CO     CLOUDY    26  23  88 E3        29.93R
COLORADO CITY  LGT RAIN  36  34  93 E6        29.91S WCI  31
PAGE, AZ       CLOUDY    38  30  73 SE3       29.88R
GRAND CANYON   LGT SNOW  31  30  96 SW13      29.93R VSB 3/4 WCI  21
KINGMAN, AZ    CLOUDY    42  36  79 SE6       29.92R
FLAGSTAFF, AZ  LGT SNOW  29  28  96 SW15      29.94S VSB 1   WCI  18

$$

REGIONAL REPORTS    NEVADA/IDAHO/WYOMING

CITY           SKY/WX    TMP DP  RH WIND       PRES   REMARKS
LAS VEGAS, NV  CLOUDY    50  38  63 S10       29.84S
ELY, NY        LGT SNOW  28  27  96 SW8       29.79R VSB 1   WCI  20
ELKO, NV       CLOUDY    32  27  81 CALM      29.73R
POCATELLO, ID  LGT SNOW  33  30  88 S9        29.71S VSB 3/4 WCI  25
BURLEY, ID     MIX PCPN  35  30  82 SW17      29.68S WCI  25
FORT BRIDGER,  CLOUDY    12   7  82 CALM      29.76R
EVANSTON, WY   CLOUDY    26  17  68 SW13      29.72R WCI  15
ROCK SPRINGS,  CLOUDY     4  -1  80 CALM      29.74R

$$



USA.gov is the U.S. government's official web portal to all federal, state and local government web resources and services.